Regional Weather Roundup
Issued by NWS Newport/Morehead, NC

Current Version | Previous Version | Text Only | Print | Product List | Glossary On
Versions: 1 2 3 4 5 6 7 8 9 10 11 12 13 14 15 16 17 18 19 20 21 22 23 24 25 26 27 28 29 30 31 32 33 34 35 36 37 38 39 40 41 42 43 44 45 46 47 48 49 50
000
ASUS42 KMHX 251524
RWRMHX
WEATHER ROUNDUP FOR EASTERN NORTH CAROLINA
NATIONAL WEATHER SERVICE NEWPORT/MOREHEAD CITY NC
1100 AM EDT SAT APR 25 2015

NOTE: "FAIR" INDICATES FEW OR NO CLOUDS BELOW 12,000 FEET
WITH NO SIGNIFICANT WEATHER AND/OR OBSTRUCTIONS TO VISIBILITY

NCZ015>017-031-032-045>047-102-103-251600-
NORTH COAST

CITY           SKY/WX    TMP DP  RH WIND       PRES   REMARKS
EDENTON        CLOUDY    59  48  68 SE7       29.93F
ELIZABETH CITY CLOUDY    58  35  42 E8        29.96R
KITTY HAWK     CLOUDY    58  31  35 E3        29.94R
MANTEO         CLOUDY    58  31  34 E7        29.95S

$$

NCZ045>047-081-094-103-104-251600-
CENTRAL COAST

CITY           SKY/WX    TMP DP  RH WIND       PRES   REMARKS
FRISCO         CLOUDY    58  47  66 NW9       29.94S
SWANQUARTER      N/A     63 N/A N/A W8        29.88F

$$

NCZ095-097-098-100-101-251600-
SOUTHERN COAST

CITY           SKY/WX    TMP DP  RH WIND       PRES   REMARKS
BEAUFORT       CLOUDY    66  56  70 W9        29.93S
CEDAR ISLAND     N/A     61 N/A N/A W6        29.97S
JACKSONVILLE   CLOUDY    62  53  72 SW5       29.92F
PINEY ISLAND   CLOUDY   N/A N/A N/A VRB6      29.93F
WILMINGTON     LGT RAIN  66  52  60 SW12      29.93S


$$

NCZ011>013-027>030-043-044-078>080-089-090>093-098-251600-
COASTAL PLAIN

CITY           SKY/WX    TMP DP  RH WIND       PRES   REMARKS
AHOSKIE        LGT RAIN  54  44  68 NE5       29.93F
CLINTON        RAIN      61  51  71 SW14G20   29.94R
ELIZABETHTOWN  RAIN      57  54  91 SW6       29.97R
GOLDSBORO      CLOUDY    59  52  77 W1        29.90F
GREENVILLE     CLOUDY    59  46  63 CALM      29.94S
HAVELOCK       CLOUDY    64  53  67 NW6       29.94F
KENANSVILLE    CLOUDY    61  49  64 SW7       29.93S
KINSTON        CLOUDY    61  48  63 SW7       29.93F
NEW BERN       CLOUDY    61  50  67 SW3       29.94F
RICHLANDS      CLOUDY    63  50  63 SW6       29.93S
ROCKY MOUNT    CLOUDY    56  45  66 S3        29.91F
WASHINGTON     CLOUDY    59  47  64 SW3       29.92F
WHITEVILLE     DRIZZLE   59  54  83 SW3       29.95R

$$

AMZ130-135-150-152-154-156-158-170-250-252-270-ANZ085-086-088-633-658-670-251600-
MARINE OBSERVATIONS

STATION/POSITION TIME  TEMP    WIND        PRES    WAVE   SWELL
                       AIR SEA DIR/SP/G            HT/PER HT/PER
                 (UTC) (F)     (DEG/KT/KT) (MB)    (FT/S) (FT/S)
CHESAPEAKE LIGHT 1500   50      50/ 10/ 11 1015.5
64 E VA BEACH    1450   55 59  350/  6/  8 1014.4    2/13   2/13
DUCK             1400   56 55  120/  5/  5 1012.9
2 E DUCK         1411      54                N/A     2/13   2/13
10 NE DUCK       NOT AVBL
OREGON INLET     1500   58 57   70/  6/  7 1013.8
HATTERAS CG      1406   60 65  290/ 10/ 13 1013.2
DIAMOND BUOY     1450   62 72  320/ 12/ 14 1013.6    3/ 8   2/ 8
CAPE LOOKOUT     1500   65     290/  3/  4 1013.3
BEAUFORT LAB     1406   65 64  250/  4/  8 1012.7
27 SE WRIGHTSVLE 1500   66 71  250/ 17/ 21   N/A
5 SE WRIGHTSVLE  1408   66 65  230/ 12/ 16 1013.3
225 S CAPE HAT   1450   65 71  190/ 10/ 12 1016.3    5/10   5/10
41 SE CHARLESTON 1450   72 71  170/ 12/ 14 1013.6    3/ 8   2/ 8

$$



USA.gov is the U.S. government's official web portal to all federal, state and local government web resources and services.